Meteo Giornale » Osservazioni meteo Giappone » Kushiro
ore: 15:00 - Osservazioni Meteo Kushiro
Lat. 43° 2' N Lon. 144° 12' E Alt. 95 metri s.l.m.
19 °C
Molto Nuvoloso
Temp. 24 Ore
15 °C
20 °C
Sud
13 Km/h
Dew point 16 °C
Umidità 82 %
Visibilità 10 Km
Il sole sorge alle ore 04:47
Il sole tramonta alle ore 17:59
| Data e Ora | Cielo e Fenomeni | T °C | DP °C | Um. % | Pres. hPa | Vis. km | Vento km/h | |
|---|---|---|---|---|---|---|---|---|
| Oggi h: 15:00 | Molto Nuvoloso | 19 | 16 | 82 | 1020 | 10 | S 13 | |
| Oggi h: 14:00 | Molto Nuvoloso | 18 | 15 | 82 | 1021 | 10 | S 14.8 | |
| Oggi h: 13:00 | Molto Nuvoloso | 19 | 14 | 72 | 1021 | 10 | S/SO 13 | |
| Oggi h: 12:00 | Molto Nuvoloso | 20 | 15 | 72 | 1021 | 10 | S/SO 14.8 | |
| Oggi h: 11:00 | Molto Nuvoloso | 19 | 13 | 68 | 1022 | 10 | N 1.8 | |
| Oggi h: 10:00 | Molto Nuvoloso | 18 | 13 | 72 | 1022 | 10 | N 3.7 | |
| Oggi h: 09:00 | Molto Nuvoloso | 17 | 14 | 82 | 1022 | 10 | N 5.5 | |
| Oggi h: 08:00 | Molto Nuvoloso | 16 | 13 | 82 | 1022 | 10 | N 5.5 | |
| Oggi h: 07:00 | Coperto | 16 | 11 | 72 | 1022 | 10 | N 5.5 | |
| Oggi h: 06:00 | Coperto | 16 | 11 | 72 | 1022 | 10 | N 5.5 | |
| Oggi h: 05:00 | Coperto | 15 | 11 | 76 | 1021 | 10 | NE 7.4 | |
| Oggi h: 04:00 | Coperto | 15 | 12 | 82 | 1021 | 10 | N 5.5 | |
| Oggi h: 03:00 | Coperto | 16 | 12 | 77 | 1021 | 10 | N 11.1 | |
| Oggi h: 02:00 | Molto Nuvoloso | 16 | 13 | 82 | 1021 | 10 | N/NE 9.3 | |
| Oggi h: 01:00 | Coperto | 16 | 14 | 87 | 1020 | 10 | N/NE 9.3 | |
| Oggi h: 00:00 | Molto Nuvoloso | 16 | 15 | 93 | 1021 | 10 | N/NE 13 | |
| Ieri h: 23:00 | Coperto | 16 | 15 | 93 | 1020 | 10 | N/NE 9.3 | |
| Ieri h: 22:00 | Coperto | 17 | 16 | 93 | 1020 | 10 | N/NE 9.3 | |
| Ieri h: 21:00 | Coperto | 17 | 16 | 93 | 1020 | 10 | N 3.7 | |
| Ieri h: 20:00 | Molto Nuvoloso | 17 | 16 | 93 | 1020 | 10 | N 3.7 | |
| Ieri h: 19:00 | Molto Nuvoloso | 17 | 16 | 93 | 1019 | 10 | N 5.5 | |
| Ieri h: 18:00 | Pioggia | 18 | 15 | 82 | 1019 | 10 | N 1.8 | |
| Ieri h: 17:00 | Molto Nuvoloso | 18 | 15 | 82 | 1018 | 10 | N 5.5 | |
| Ieri h: 16:00 | Molto Nuvoloso | 18 | 15 | 82 | 1018 | 10 | S 13 | |



